Theta_e
331 329 327 328 326 325 323 322 319 320 317 316 315 315 314 316 318 318 318 318 324 329 330 333 335 336 337 337 337 334 335 334 335 332 330 327 327 326 324 323 322 322 321
332 330 327 326 327 326 323 322 318 316 316 316 316 314 314 316 318 319 320 318 322 327 330 332 335 336 337 338 337 335 337 336 332 330 327 326 324 322 321 321 320 319 319
332 331 328 327 328 327 324 320 319 316 315 315 314 315 315 317 317 318 319 320 321 322 326 331 334 336 336 338 337 336 337 334 331 327 325 323 321 320 319 318 318 317 317
333 331 329 328 328 327 324 319 317 316 315 313 312 313 314 317 318 318 318 320 321 324 322 328 331 333 336 336 337 337 336 332 328 325 322 320 319 318 317 316 316 316 316
333 332 331 330 329 327 325 321 319 317 314 314 314 313 314 315 316 319 318 319 321 324 325 324 324 326 333 337 337 337 335 330 326 322 320 319 317 316 315 315 314 315 314
328 332 331 330 329 327 325 321 319 319 316 315 317 315 313 315 316 316 317 319 321 324 325 326 322 320 321 333 336 336 333 328 324 321 318 316 315 314 313 314 314 313 312
308 319 331 330 330 327 325 321 318 317 316 316 313 312 312 314 314 315 317 317 320 323 324 326 319 314 318 328 332 333 331 326 322 319 316 314 313 313 314 313 311 311 311
309 309 307 310 329 327 324 320 318 317 317 317 313 311 307 310 313 314 315 319 316 318 312 310 309 308 311 318 325 328 326 324 320 317 314 313 314 313 311 310 310 310 309
309 309 310 311 311 328 324 321 319 317 314 317 316 311 305 304 310 312 306 307 306 305 305 305 304 303 302 303 307 312 318 318 315 314 314 313 311 310 310 309 309 309 309
308 310 310 310 308 317 325 322 320 317 316 313 315 316 312 314 309 305 305 301 301 300 299 301 300 300 300 300 301 302 306 309 310 311 309 309 309 309 308 307 308 307 307
306 307 309 311 310 309 323 323 321 318 318 315 315 315 313 313 316 309 302 298 297 296 296 296 296 295 297 298 298 300 304 306 304 303 304 304 306 306 306 306 306 306 304
303 306 309 309 310 310 313 324 322 319 317 317 316 316 314 311 313 313 306 300 296 293 293 293 292 293 294 295 296 298 302 302 300 300 300 300 302 303 304 304 303 302 302
301 302 305 308 308 309 311 309 322 320 318 317 316 316 317 314 316 318 308 298 294 291 290 290 290 291 291 291 292 294 299 300 299 298 298 299 300 299 299 299 300 301 302
300 303 304 307 309 309 311 312 318 321 320 318 316 316 317 317 316 317 309 300 293 292 290 287 289 289 289 289 290 291 295 297 297 297 298 298 296 296 296 298 300 300 298
302 302 304 306 308 310 310 312 311 320 320 319 317 317 317 318 318 317 310 308 300 291 289 286 285 288 287 287 288 289 291 294 295 295 296 294 294 294 295 298 298 297 296
300 301 303 304 306 309 310 312 311 312 320 319 318 318 317 318 318 319 311 311 307 303 289 289 286 285 286 286 286 288 288 290 293 293 292 292 292 293 295 295 295 294 293
299 300 301 302 304 308 310 310 310 310 318 318 319 318 318 319 318 318 315 312 308 297 289 283 285 285 284 284 284 286 286 286 288 290 289 289 290 291 292 292 292 291 290
296 297 299 301 304 307 309 309 308 309 316 317 317 317 317 317 312 309 310 308 302 294 287 281 282 283 283 283 283 284 285 286 286 287 287 288 289 290 290 289 289 288 287
294 296 296 298 299 302 307 303 300 306 316 318 318 317 316 312 304 302 300 297 295 292 288 283 281 282 281 282 282 281 281 283 285 285 285 287 288 289 287 287 286 284 284
292 293 294 295 297 301 297 294 294 294 292 293 293 295 298 302 296 294 292 290 289 286 284 282 280 279 279 281 282 277 277 279 280 281 281 281 285 286 284 284 283 282 282
290 291 290 291 293 294 293 290 290 289 289 287 288 289 289 289 290 291 289 288 287 284 282 281 279 279 278 278 279 280 278 277 277 279 278 278 280 281 280 281 280 281 281
288 289 288 288 289 290 292 291 290 288 288 287 285 286 287 288 290 291 291 291 288 285 284 282 280 278 278 280 280 279 277 275 274 277 278 276 278 277 277 278 280 280 280
286 285 285 285 285 288 291 290 288 287 286 286 286 286 285 286 287 286 287 288 287 289 288 285 281 280 279 279 280 278 278 277 274 274 276 274 276 274 276 278 279 278 278
284 284 284 284 284 286 288 288 286 285 284 284 284 284 284 284 284 283 281 278 278 278 280 280 279 278 278 278 278 278 276 273 273 273 274 272 273 272 275 275 277 277 277
284 284 284 284 284 284 287 287 285 283 281 281 282 283 282 282 284 283 279 277 277 278 282 282 282 282 281 280 278 276 274 273 271 270 271 272 270 270 272 273 274 276 276
282 283 282 283 284 284 286 286 284 283 280 280 281 281 282 282 283 282 278 276 274 274 274 273 272 273 274 276 276 274 276 272 270 268 270 270 270 269 268 272 272 272 271
Wind_Speed
10 8 8 8 8 7 8 8 6 8 7 8 6 5 5 5 5 3 3 10 10 11 12 12 12 12 12 13 10 9 11 6 12 11 9 6 7 7 8 8 9 9 10
10 9 8 9 8 9 8 9 7 6 6 6 5 5 6 6 6 6 4 5 11 12 13 13 13 13 12 13 12 14 12 14 12 11 10 7 7 8 8 8 8 9 10
12 12 10 9 10 9 11 7 7 6 5 5 7 6 6 6 6 6 5 4 6 11 12 13 13 12 12 10 10 10 14 15 13 10 9 9 8 8 8 8 9 9 10
15 13 11 12 11 10 10 7 6 5 5 6 5 6 5 6 7 7 5 5 5 5 9 12 11 12 12 12 12 13 16 17 14 11 10 9 9 8 8 8 8 9 10
17 15 12 12 14 11 9 10 8 9 5 5 5 5 6 6 8 7 7 6 6 5 5 11 12 10 10 13 15 14 19 18 16 12 11 10 9 9 8 8 8 9 9
21 16 14 14 13 12 11 11 13 10 8 8 9 8 6 5 5 6 6 6 6 6 4 6 4 4 7 10 12 16 20 19 18 14 12 11 10 9 8 8 8 8 8
16 20 13 16 15 15 16 15 13 14 10 8 5 4 4 6 6 5 5 5 6 6 5 6 4 3 3 7 10 13 18 19 17 15 13 11 9 9 9 8 7 7 8
14 15 15 16 17 15 18 17 16 12 11 12 9 5 4 3 4 1 3 2 6 7 8 8 8 7 5 4 7 16 16 17 17 15 13 12 11 10 8 7 8 8 8
12 13 14 14 24 17 15 18 18 19 14 11 15 7 5 6 7 2 5 5 6 6 6 8 9 8 7 7 10 10 12 14 14 14 15 13 11 9 8 7 8 8 9
12 11 16 13 15 16 18 18 16 16 15 15 12 12 5 6 6 5 2 4 5 6 6 5 7 8 8 8 12 14 13 13 12 15 13 13 11 10 9 8 9 8 10
12 14 12 15 16 13 22 20 20 20 17 15 13 15 13 5 5 5 5 5 4 4 4 5 6 6 7 8 7 9 13 18 18 15 14 12 11 10 10 9 9 11 10
9 13 12 13 16 16 19 18 23 24 20 16 14 14 15 13 9 6 5 5 7 4 4 5 5 5 5 6 9 9 12 18 17 16 14 14 12 11 11 11 10 9 8
9 13 15 12 11 14 15 18 21 23 22 18 18 15 13 13 7 7 6 5 5 3 3 4 4 5 6 5 6 7 10 18 17 16 15 14 15 13 10 8 10 10 14
12 15 14 14 13 18 13 19 17 17 20 18 21 16 12 12 11 8 7 9 5 4 3 5 3 4 5 5 8 9 7 17 15 16 15 17 14 11 10 8 9 14 13
11 15 15 15 15 15 16 17 11 16 19 19 18 19 13 12 12 11 8 12 10 6 4 6 4 6 6 6 6 5 8 15 15 14 17 16 14 11 9 9 12 12 12
15 16 15 17 16 16 20 16 10 10 19 17 16 19 17 12 12 12 10 11 9 8 6 3 3 11 9 7 7 7 10 11 16 15 16 15 13 11 11 10 11 11 12
14 16 16 16 17 17 17 15 13 13 19 19 19 19 20 18 13 12 9 10 9 6 9 4 5 12 11 10 8 6 7 7 8 15 15 12 11 11 13 12 12 11 10
17 16 18 16 16 16 18 12 14 12 18 24 21 20 19 14 12 11 9 11 9 6 8 18 13 9 11 11 8 9 6 5 7 13 13 12 10 13 15 12 13 13 11
15 16 17 15 14 17 17 8 9 15 15 19 20 21 20 16 12 9 9 9 9 9 13 12 15 10 7 10 8 7 9 6 7 13 12 11 11 15 15 13 13 11 10
16 15 15 14 15 13 4 4 3 6 12 11 13 13 9 11 13 13 12 13 14 15 16 17 13 13 10 7 8 9 8 4 5 6 9 8 9 12 14 12 11 10 11
14 13 12 12 9 6 4 5 8 9 10 17 19 17 17 20 23 19 13 13 18 16 14 14 13 12 11 10 9 5 9 7 4 2 4 4 4 4 6 9 9 9 10
12 11 8 9 8 4 12 15 12 10 12 20 22 21 20 26 28 30 29 24 17 16 17 14 13 12 10 9 7 7 10 7 4 1 4 3 3 5 5 3 8 9 10
10 8 5 5 4 4 20 21 19 10 14 16 18 19 17 15 21 24 31 31 27 25 16 14 15 10 11 9 10 10 8 5 4 2 3 3 2 4 4 4 8 9 9
7 8 9 9 8 9 24 24 23 17 17 17 18 17 18 18 18 22 21 20 19 15 13 11 13 11 11 9 8 8 9 10 7 6 4 3 2 3 2 2 6 6 9
10 10 10 10 8 11 26 21 20 20 21 20 18 17 17 20 28 30 21 23 21 18 24 29 26 25 23 18 12 8 8 7 3 3 5 2 2 1 1 1 2 7 10
10 9 14 14 13 16 29 22 18 15 22 16 17 19 25 20 28 27 20 19 19 15 16 17 14 18 18 17 17 9 3 4 5 3 4 2 2 1 2 2 3 4 4
Wind_Direction
204 203 200 175 183 193 189 208 196 202 201 215 223 234 268 263 244 244 159 190 195 204 214 220 223 228 231 242 194 194 212 186 135 125 111 107 100 90 77 68 58 49 44
206 195 196 198 183 190 201 195 201 191 193 191 216 222 221 240 240 235 234 201 205 202 210 220 223 227 231 237 207 213 196 151 137 128 120 127 112 93 76 65 56 50 47
209 202 197 204 207 188 190 183 196 186 188 192 195 204 214 223 231 232 223 227 200 209 203 213 221 229 233 236 207 180 164 155 138 127 138 123 106 91 78 66 59 52 46
209 213 211 205 204 200 181 192 177 193 186 186 193 200 203 203 214 230 229 218 201 201 207 204 212 225 229 223 207 187 171 141 135 144 133 117 103 94 87 80 68 61 54
215 212 215 214 204 198 199 193 188 186 183 185 198 204 203 203 206 213 217 222 219 211 186 197 200 214 228 225 212 191 154 145 135 143 132 126 118 110 102 90 82 69 54
284 216 218 210 209 202 201 189 194 189 184 183 203 210 208 206 194 197 202 210 210 208 175 168 167 202 243 236 215 185 157 146 142 144 136 130 124 116 104 96 84 71 61
338 323 220 210 211 202 200 197 192 188 193 180 163 196 201 198 205 205 198 203 205 196 181 101 92 74 13 223 211 186 152 143 142 140 135 128 122 115 103 91 83 74 67
308 321 331 325 238 204 199 193 192 195 194 185 184 140 179 247 216 194 43 73 58 95 102 90 90 73 51 55 111 144 146 142 141 138 135 131 121 101 102 95 79 74 70
288 292 298 297 311 212 201 198 195 196 191 187 186 161 165 198 150 96 60 75 81 85 92 103 97 87 74 68 72 79 113 130 132 132 126 110 110 104 92 88 81 77 71
285 291 289 307 289 309 207 205 194 197 192 191 189 196 193 153 159 150 121 70 76 80 86 86 94 90 86 82 77 79 87 106 113 105 107 105 102 103 98 91 86 77 62
289 283 289 285 301 309 257 198 197 201 198 190 188 191 209 198 160 143 153 152 94 73 72 83 94 97 100 98 93 95 109 105 97 95 92 89 94 93 91 89 81 72 69
282 283 271 284 290 308 321 219 199 197 199 193 193 192 198 199 189 154 145 143 139 113 93 85 89 95 88 90 95 108 121 115 108 105 102 100 96 94 80 76 81 89 91
265 273 282 274 285 293 291 281 225 195 196 194 190 193 196 206 195 183 135 133 134 130 126 74 103 116 112 99 85 80 116 119 114 109 106 104 91 82 80 92 96 98 79
267 264 279 286 283 285 286 277 271 196 193 193 195 193 190 196 202 190 144 149 121 124 154 142 129 115 112 109 101 74 95 111 109 107 109 99 95 95 91 90 105 92 82
276 270 265 273 274 260 280 272 293 221 193 189 196 193 191 190 191 196 150 173 151 147 161 177 142 152 127 117 106 91 97 106 105 113 104 97 96 95 102 101 95 89 76
275 277 276 268 272 262 256 259 258 299 209 185 192 193 195 191 187 189 163 178 175 151 135 147 146 147 137 122 120 98 98 99 102 98 98 98 97 103 101 101 93 87 72
292 287 282 277 281 260 262 262 267 306 207 186 191 193 196 194 194 192 173 178 173 127 123 93 109 139 134 136 128 111 108 93 98 98 92 96 103 110 100 91 86 80 74
293 288 280 278 279 269 274 270 281 280 244 193 189 191 196 195 172 171 170 162 148 127 123 138 140 139 129 126 121 119 110 94 105 98 95 109 105 105 94 94 86 73 68
291 287 287 281 281 274 260 262 268 269 226 192 188 191 189 176 166 156 143 131 127 116 121 134 132 125 120 121 117 97 97 78 101 109 95 97 109 100 88 85 83 77 67
294 292 287 285 283 252 224 255 34 33 88 80 85 91 112 143 140 130 123 121 119 118 120 123 124 122 124 137 115 122 106 104 98 95 100 106 90 101 96 90 78 71 55
296 291 292 283 281 267 166 105 83 93 113 103 86 81 92 98 98 107 111 113 118 117 121 123 116 124 134 146 141 137 131 120 97 105 127 121 107 93 84 83 70 65 54
306 301 290 311 310 309 112 105 99 105 98 107 106 99 96 96 98 96 99 101 105 123 127 119 133 142 144 129 127 153 133 146 140 19 132 96 112 99 100 96 90 69 51
313 286 353 316 353 65 98 101 98 101 97 96 102 106 104 99 100 96 87 85 84 89 107 121 128 132 127 134 148 143 153 115 104 112 121 106 79 105 115 103 89 63 45
338 6 3 18 46 75 96 101 99 89 80 76 81 87 90 93 94 95 94 85 76 71 76 88 96 101 104 106 118 126 119 107 95 67 22 108 32 88 98 119 100 56 32
21 27 28 34 51 78 86 91 100 88 80 69 72 76 84 87 93 96 95 93 88 84 85 91 93 91 93 97 100 116 123 125 100 78 19 64 75 82 82 50 64 49 32
43 44 47 39 45 66 79 74 77 88 85 81 75 74 79 93 97 101 101 108 100 98 97 91 84 74 68 71 65 48 74 94 109 102 20 88 74 47 95 33 56 71 31